Location: Sungai Bunut
(2.6333°N, 113.7333°E)
Time: 01:43:05
(UTC+00:00)

S-56A Canister/Altair - Pass Details

Date: 05 December 2023
Orbit: 640 x 2488 km, 38.9° (Epoch: 24 February)

Event Time Altitude Azimuth Distance (km) Brightness Sun altitude
Rises 09:53:30 0° 340° (NNW) 3,599 10.9 4.1°
Reaches altitude 10° 09:56:30 10° 357° (N) 2,898 10.3 3.4°
Maximum altitude 10:01:50 22° 45° (NE) 2,577 9.7 2.2°
Drops below altitude 10° 10:08:46 10° 91° (E) 3,925 10.6 0.6°
Sets 10:13:42 0° 104° (ESE) 5,282 11.3 -0.6°
